Regional Weather Roundup
Issued by NWS Austin/San Antonio, TX

Home | Current Version | Previous Version | Text Only | Print | Product List | Glossary On
Versions: 1 2 3 4 5 6 7 8 9 10 11 12 13 14 15 16 17 18 19 20 21 22 23 24 25 26 27 28 29 30 31 32 33 34 35 36 37 38 39 40 41 42 43 44 45 46 47 48 49 50
000
ASUS44 KEWX 120810
RWREWX
SOUTH TEXAS REGIONAL WEATHER ROUNDUP
NATIONAL WEATHER SERVICE AUSTIN/SAN ANTONIO TX
200 AM CST TUE DEC 12 2017

NOTE: "FAIR" INDICATED FEW OR NO CLOUDS BELOW 12,000 FEET WITH NO
SIGNIFICANT WEATHER AND/OR OBSTRUCTIONS TO VISIBILITY.

* - THESE STATIONS ARE NOT NWS OR FAA STATIONS...AND ARE NOT SUBJECT
    TO NWS AND FAA QUALITY CONTROL.

TXZ171-172-183>190-120900-
TEXAS HILL COUNTRY AND EDWARDS PLATEAU

CITY           SKY/WX    TMP DP  RH WIND       PRES   REMARKS
JUNCTION       PTCLDY    35  32  88 CALM      30.29F
*LLANO         CLEAR     37  32  81 CALM      30.31R
BURNET         CLEAR     55  28  35 N9        30.27R
*HORSESHOE BAY CLEAR     51  34  53 W5        30.26R
*KERRVILLE     CLOUDY    38  33  81 CALM      30.27S
*FREDERICKSBRG CLEAR     34  29  82 CALM      30.26F
*ROCKSPRINGS   NOT AVBL
*BOERNE STAGE  CLOUDY    41  32  70 CALM      30.26S
*CASTROVILLE   CLOUDY    46  37  70 NW10      30.25F WCI  41
HONDO          CLOUDY    41  34  76 N7        30.25S WCI  36
*UVALDE        CLOUDY    41  36  83 CALM      30.27R
DEL RIO        PTCLDY    40  39  97 W5        30.28R WCI  37
LAUGHLIN AFB   PTCLDY    40  36  85 NW6       30.27R WCI  36
CARRIZO SPRGS  CLOUDY    48  43  81 NW3       30.26R
*EAGLE PASS    SUNNY     45  39  81 NW5       30.27R WCI  42
$$

TXZ173-191>194-202-209-217>225-228-120900-
CENTRAL AND SOUTH CENTRAL TEXAS

CITY           SKY/WX    TMP DP  RH WIND       PRES   REMARKS
GEORGETOWN     PTCLDY    53  31  42 NW12      30.25R
AUSTIN/BERGSTM PTCLDY    49  36  61 W6        30.22R WCI  46
AUSTIN/MABRY   PTCLDY    53  36  52 NW7       30.23R
*AUSTIN/EXEC   PTCLDY    54  34  47 NW10      30.23R
*LAGO VISTA    PTCLDY    57  29  34 NW9G16    30.24R
SAN MARCOS     PTCLDY    42  35  76 NW8       30.23F WCI  37
NEW BRAUNFELS  CLOUDY    44  35  70 W8        30.21F WCI  39
RANDOLPH AFB   CLOUDY    43  35  72 W6        30.23S WCI  39
PT SAN ANTONIO CLOUDY    42  35  78 N7        30.21S WCI  37
SAN ANTONIO    CLOUDY    44  35  70 W9        30.24S WCI  39
STINSON FIELD  CLOUDY    46  38  73 NW5       30.22R WCI  44
*LA GRANGE     CLEAR     47  37  68 CALM      30.19S
*GIDDINGS      CLEAR     49  36  61 W3        30.21R
*GONZALES      CLEAR     49  38  65 NW3       30.21F
$$

TXZ163>164-176>182-195>201-210>213-226-227-235-120900-
SOUTHEAST TEXAS

CITY           SKY/WX    TMP DP  RH WIND       PRES   REMARKS
COLLEGE STN    CLEAR     51  36  56 NW8       30.20R
*BRYAN         CLEAR     49  35  56 NW8       30.22R WCI  46
*CALDWELL      CLEAR     54  34  46 NW10      30.21R
*CROCKETT        N/A     46  32  57 CALM      30.23R
*BRENHAM       CLEAR     54  37  52 W6        30.20S
HUNTSVILLE     CLEAR     54  33  45 NW6       30.19R
CONROE         CLEAR     38  38 100 CALM      30.17R
HOUSTON BUSH   PTCLDY    49  42  77 SW5       30.17S WCI  47
HOUSTON HOBBY  PTCLDY    49  42  77 W6        30.17F WCI  46
*HOUSTON SW AP CLEAR     52  40  64 W6        30.19S
PEARLAND       CLEAR     49  44  83 W3        30.20S
HOUSTON HOOKS  CLEAR     51  39  63 W8        30.17S
ELLINGTON FLD  PTCLDY    52  41  66 SW5       30.20S
SUGAR LAND     CLEAR     50  39  66 W7        30.18S WCI  47
*HOUSTON EXEC  NOT AVBL
*CLEVELAND MUN CLEAR     46  38  72 CALM      30.17R
*WHARTON       MOCLDY    48  39  70 SW5       30.22R WCI  46
*COLUMBUS      FAIR     N/A N/A N/A W5        30.21S
*EAGLE LAKE    SUNNY     51  38  63 W6        30.20S
$$

TXZ214>216-236>238-120900-
THE UPPER TEXAS COAST

CITY           SKY/WX    TMP DP  RH WIND       PRES   REMARKS
*ORANGE        CLEAR     52  46  77 W5        30.16S
PORT ARTHUR    CLEAR     45  41  86 W5        30.15S WCI  43
GALVESTON      PTCLDY    53  48  83 SW6       30.19S
ANGLETON       PTCLDY    49  43  80 CALM      30.20R
*BAY CITY      MOCLDY    47  44  88 W5        30.21S WCI  45
PALACIOS       MOCLDY    49  46  90 SW5       30.22S WCI  47
$$

TXZ229>234-239>247-120900-
TEXAS COASTAL BEND AND RIO GRANDE PLAINS

CITY           SKY/WX    TMP DP  RH WIND       PRES   REMARKS
VICTORIA       MOCLDY    45  38  76 W6        30.22S WCI  42
*BEEVILLE      MOCLDY    51  41  69 W7        30.23S
ROCKPORT       PTCLDY    49  47  93 SW5       30.23S WCI  47
*PORT ARANSAS  NOT AVBL
*PORT LAVACA   MOCLDY    46  43  88 SW6       30.23S WCI  43
*INGLESIDE     NOT AVBL
CORPUS CHRISTI MOCLDY    50  48  93 SW6       30.24R WCI  48
CORPUS NAS     CLOUDY    54  46  74 SW8       30.23S
*ROBSTOWN      PTCLDY    50  47  89 SW5       30.25R WCI  48
ALICE          MOCLDY    49  42  77 SW6       30.24R WCI  46
KINGSVILLE NAS CLOUDY    51  44  77 W5        30.24S
COTULLA        CLOUDY    50  42  74 NW5       30.26R WCI  48
*FAITH RANCH   CLEAR     50  46  87 CALM      30.27R
LAREDO           N/A    N/A N/A N/A MISG        N/A
$$

TXZ248>255-120900-
DEEP SOUTH TEXAS

CITY           SKY/WX    TMP DP  RH WIND       PRES   REMARKS
BROWNSVILLE    CLOUDY    53  47  79 W3        30.26R
PORT ISABEL    CLOUDY    52  45  77 SW5       30.25R
*SOUTH PADRE   NOT AVBL
HARLINGEN      CLOUDY    53  44  71 SW6       30.25R
*HEBBRONVILLE  CLOUDY    53  35  51 W8        30.26R
MCALLEN        CLOUDY    54  47  77 CALM      30.26R
*WESLACO       CLOUDY    53  43  68 SW5       30.25S
FALFURRIAS     NOT AVBL
EDINBURG       NOT AVBL
*ZAPATA        CLOUDY    43  40  88 N3        30.25S
$$

TXZ213>215-236>238-242>244-246-247-251-254-255-120900-
CMAN STATIONS

STATION/POSITION TIME  TEMP    WIND        PRES    WAVE
                       AIR SEA DIR/SP/G            HT/PER
                 (UTC) (F)     (DEG/KT/KT) (MB)    (FT/S)
SABINE PASS      0748   52 57  250/  6/ 12 1022.4
SEA RIM ST PARK  0800   47     260/  8/  9 1021.5
NORTH JETTY/GLS  0742      57  260/ 13/ 15 1021.2
EAGLE POINT      0748   54 55  280/  6/  8 1021.9
MORGANS POINT    0748   56 57  250/  7/  9 1021.4
PORT O`CONNOR    0748   54 55  260/  7/ 10 1022.9
MALAQUITE BEACH  0748   54 61  230/  7/  8 1023.1
BAFFIN BAY       0742   55 56  240/  8/  9 1024.0
PORT ISABEL      0742   53 57  240/  4/  5 1024.1
$$




USA.gov is the U.S. government's official web portal to all federal, state and local government web resources and services.